Terug naar catalogus

COSMOS 2251 DEB

ActiefLEO
NORAD 35645·DEBRIS·🇷🇺 Russia

Gelanceerd Jun 16, 1993 vanaf Plesetsk Cosmodrome

Loading…

Volgende Passages (komende 24 uur)

TLE

VersSource: Space-Track

Epoch: Sep 13, 2026, 12:17 UTC

1 35645U 93036ANL 26256.51197124  .00002735  00000-0  72144-3 0  9993
2 35645  73.9623 291.8568 0066854  21.0185 339.3698 14.48122811907469

Volg COSMOS 2251 DEB in realtime met AllMySat

Download on the App Store